VTK503 UHPP-UNKL

Flight info

Callsign VTK503
Flight time N/A
Altitude 36000
Route BAKEN4M BAKEN A812 OTLIM G119 BANOT G370 UTS/K0845F380 G370 ABGUR W289 GISUN W39 ERBOG W105 LANAP W339 BARIK W261 OKRIM OKRIM2S
Aircraft A319/M-SDE3FGHIRWY/LB1

Departure

Time N/A
Airport Yelizovo Airport (UHPP)

Arrival

Time 2026-05-08 05:10
Airport Krasnoyarsk International Airport (UNKL)
Time Latitude Longitude Altitude Speed Heading
2026-05-08 02:15 62.25328 124.83101 35729 ft 405 kts 277°
2026-05-08 02:16 62.25505 124.71026 35726 ft 405 kts 277°
2026-05-08 02:16 62.25683 124.58939 35725 ft 405 kts 277°
2026-05-08 02:17 62.25844 124.46856 35726 ft 405 kts 277°
2026-05-08 02:17 62.25990 124.34754 35726 ft 406 kts 277°
2026-05-08 02:18 62.26128 124.22657 35723 ft 406 kts 277°
2026-05-08 02:18 62.26257 124.10550 35726 ft 406 kts 277°
2026-05-08 02:19 62.26380 123.98438 35727 ft 406 kts 277°
2026-05-08 02:19 62.26488 123.86328 35724 ft 406 kts 277°
2026-05-08 02:20 62.26582 123.74137 35723 ft 406 kts 277°
2026-05-08 02:20 62.26674 123.62031 35722 ft 406 kts 277°
2026-05-08 02:21 62.26757 123.49925 35720 ft 406 kts 277°
2026-05-08 02:21 62.26828 123.37805 35720 ft 406 kts 276°
2026-05-08 02:22 62.26882 123.25683 35717 ft 406 kts 276°
2026-05-08 02:22 62.26933 123.13551 35718 ft 406 kts 276°
2026-05-08 02:23 62.26978 123.01421 35722 ft 407 kts 276°
2026-05-08 02:23 62.27004 122.89277 35722 ft 407 kts 276°
2026-05-08 02:24 62.27017 122.77116 35719 ft 407 kts 276°
2026-05-08 02:24 62.27022 122.64961 35721 ft 407 kts 276°
2026-05-08 02:25 62.27020 122.52800 35724 ft 407 kts 276°
2026-05-08 02:25 62.27000 122.40638 35724 ft 407 kts 276°
2026-05-08 02:26 62.26973 122.28476 35726 ft 407 kts 276°
2026-05-08 02:26 62.26936 122.16315 35729 ft 407 kts 276°
2026-05-08 02:27 62.26892 122.04153 35730 ft 407 kts 275°
2026-05-08 02:27 62.26836 121.91923 35726 ft 407 kts 275°
2026-05-08 02:28 62.26768 121.79768 35730 ft 407 kts 275°
2026-05-08 02:28 62.26689 121.67616 35728 ft 407 kts 275°
2026-05-08 02:29 62.26606 121.55467 35721 ft 407 kts 275°
2026-05-08 02:29 62.26511 121.43320 35718 ft 407 kts 275°
2026-05-08 02:30 62.26393 121.31182 35717 ft 407 kts 275°
2026-05-08 02:30 62.26265 121.19042 35714 ft 407 kts 275°
2026-05-08 02:31 62.26137 121.06894 35716 ft 407 kts 275°
2026-05-08 02:31 62.25999 120.94748 35720 ft 407 kts 274°
2026-05-08 02:32 62.25842 120.82622 35714 ft 407 kts 274°
2026-05-08 02:32 62.25676 120.70470 35717 ft 407 kts 274°
2026-05-08 02:33 62.25505 120.58331 35718 ft 407 kts 274°
2026-05-08 02:33 62.25320 120.46193 35718 ft 407 kts 274°
2026-05-08 02:34 62.25122 120.34056 35719 ft 407 kts 273°
2026-05-08 02:34 62.24914 120.21917 35722 ft 407 kts 273°
2026-05-08 02:35 62.24703 120.09778 35719 ft 407 kts 273°
2026-05-08 02:35 62.24478 119.97638 35719 ft 407 kts 273°
2026-05-08 02:36 62.24240 119.85424 35719 ft 407 kts 273°
2026-05-08 02:36 62.23991 119.73272 35721 ft 408 kts 272°
2026-05-08 02:37 62.23733 119.61135 35721 ft 408 kts 272°
2026-05-08 02:37 62.23462 119.48999 35722 ft 408 kts 272°
2026-05-08 02:38 62.23178 119.36855 35720 ft 408 kts 272°
2026-05-08 02:38 62.22881 119.24704 35728 ft 408 kts 272°
2026-05-08 02:39 62.22576 119.12552 35722 ft 408 kts 272°
2026-05-08 02:39 62.22288 119.00411 35726 ft 408 kts 272°
2026-05-08 02:40 62.21994 118.88250 35724 ft 408 kts 271°
2026-05-08 02:40 62.21684 118.76099 35724 ft 409 kts 271°
2026-05-08 02:41 62.21359 118.63937 35724 ft 409 kts 271°
2026-05-08 02:41 62.21031 118.51789 35724 ft 409 kts 271°
2026-05-08 02:42 62.20687 118.39628 35722 ft 409 kts 271°
2026-05-08 02:42 62.20328 118.27467 35722 ft 409 kts 270°
2026-05-08 02:43 62.19965 118.15231 35723 ft 409 kts 270°
2026-05-08 02:43 62.19587 118.03092 35719 ft 409 kts 270°
2026-05-08 02:44 62.19196 117.90939 35721 ft 409 kts 270°
2026-05-08 02:44 62.18798 117.78789 35718 ft 409 kts 270°
2026-05-08 02:45 62.18384 117.66651 35719 ft 409 kts 270°
2026-05-08 02:45 62.17873 117.54490 35713 ft 410 kts 268°
2026-05-08 02:46 62.17257 117.42360 35712 ft 410 kts 267°
2026-05-08 02:46 62.16635 117.30233 35711 ft 410 kts 268°
2026-05-08 02:47 62.16024 117.18101 35709 ft 410 kts 268°
2026-05-08 02:47 62.15413 117.05982 35716 ft 410 kts 267°
2026-05-08 02:48 62.14790 116.93862 35710 ft 410 kts 267°
2026-05-08 02:48 62.14156 116.81740 35708 ft 410 kts 267°
2026-05-08 02:49 62.13617 116.71600 35710 ft 410 kts 266°
2026-05-08 02:49 62.12962 116.59485 35708 ft 410 kts 266°
2026-05-08 02:50 62.12292 116.47375 35701 ft 410 kts 266°
2026-05-08 02:50 62.11607 116.35283 35703 ft 410 kts 266°
2026-05-08 02:51 62.10914 116.23193 35703 ft 410 kts 266°
2026-05-08 02:51 62.10210 116.11118 35703 ft 410 kts 266°
2026-05-08 02:52 62.09500 115.99049 35705 ft 410 kts 265°
2026-05-08 02:52 62.08780 115.86980 35705 ft 410 kts 265°
2026-05-08 02:53 62.08048 115.74939 35709 ft 410 kts 265°
2026-05-08 02:53 62.07294 115.62888 35709 ft 409 kts 265°
2026-05-08 02:54 62.06544 115.50863 35702 ft 409 kts 265°
2026-05-08 02:54 62.05791 115.38833 35701 ft 409 kts 265°
2026-05-08 02:55 62.04640 115.20798 35699 ft 409 kts 265°
2026-05-08 02:56 62.03842 115.08715 35702 ft 409 kts 264°
2026-05-08 02:56 62.03044 114.96710 35697 ft 409 kts 264°
2026-05-08 02:57 62.02240 114.84725 35699 ft 409 kts 264°
2026-05-08 02:57 62.01421 114.72751 35699 ft 409 kts 264°
2026-05-08 02:58 62.00599 114.60777 35698 ft 409 kts 264°
2026-05-08 02:58 61.99761 114.48815 35692 ft 409 kts 264°
2026-05-08 02:59 61.98904 114.36869 35696 ft 409 kts 264°
2026-05-08 02:59 61.98037 114.24924 35697 ft 408 kts 264°
2026-05-08 03:00 61.97182 114.13000 35698 ft 408 kts 264°
2026-05-08 03:00 61.96310 114.01066 35699 ft 408 kts 263°
2026-05-08 03:01 61.95417 113.89142 35691 ft 408 kts 263°
2026-05-08 03:01 61.94512 113.77238 35699 ft 408 kts 263°
2026-05-08 03:02 61.93597 113.65335 35697 ft 408 kts 263°
2026-05-08 03:02 61.92683 113.53433 35703 ft 408 kts 263°
2026-05-08 03:03 61.91755 113.41561 35693 ft 408 kts 263°
2026-05-08 03:03 61.90804 113.29614 35709 ft 408 kts 262°
2026-05-08 03:04 61.89849 113.17762 35694 ft 408 kts 262°
2026-05-08 03:04 61.88889 113.05920 35701 ft 408 kts 262°
2026-05-08 03:05 61.87925 112.94080 35706 ft 407 kts 262°
2026-05-08 03:05 61.86940 112.82247 35707 ft 407 kts 262°
2026-05-08 03:06 61.85949 112.70438 35714 ft 407 kts 262°
2026-05-08 03:06 61.84956 112.58639 35713 ft 407 kts 262°
2026-05-08 03:07 61.83946 112.46851 35709 ft 407 kts 262°
2026-05-08 03:07 61.82925 112.35065 35710 ft 407 kts 262°
2026-05-08 03:08 61.81897 112.23306 35711 ft 407 kts 261°
2026-05-08 03:08 61.80851 112.11541 35709 ft 407 kts 261°
2026-05-08 03:09 61.79595 111.99873 35711 ft 407 kts 258°
2026-05-08 03:09 61.78178 111.88291 35711 ft 407 kts 257°
2026-05-08 03:10 61.76757 111.76725 35713 ft 407 kts 258°
2026-05-08 03:10 61.75374 111.65127 35711 ft 407 kts 258°
2026-05-08 03:11 61.73975 111.53481 35716 ft 407 kts 258°
2026-05-08 03:11 61.72576 111.41921 35712 ft 407 kts 257°
2026-05-08 03:12 61.71174 111.30379 35712 ft 406 kts 257°
2026-05-08 03:12 61.69758 111.18845 35706 ft 406 kts 257°
2026-05-08 03:13 61.68333 111.07340 35706 ft 406 kts 257°
2026-05-08 03:13 61.66904 110.95821 35699 ft 406 kts 257°
2026-05-08 03:14 61.65471 110.84334 35698 ft 406 kts 257°
2026-05-08 03:14 61.64022 110.72854 35698 ft 406 kts 257°
2026-05-08 03:15 61.62559 110.61395 35698 ft 406 kts 257°
2026-05-08 03:15 61.61089 110.49966 35699 ft 405 kts 256°
2026-05-08 03:16 61.59607 110.38532 35692 ft 405 kts 256°
2026-05-08 03:16 61.58119 110.27117 35689 ft 405 kts 256°
2026-05-08 03:17 61.56624 110.15709 35689 ft 405 kts 256°
2026-05-08 03:17 61.55120 110.04335 35684 ft 405 kts 256°
2026-05-08 03:18 61.53592 109.92890 35681 ft 405 kts 256°
2026-05-08 03:18 61.52081 109.81617 35682 ft 405 kts 256°
2026-05-08 03:19 61.50538 109.70185 35680 ft 405 kts 256°
2026-05-08 03:19 61.48998 109.58856 35678 ft 405 kts 256°
2026-05-08 03:20 61.47446 109.47524 35676 ft 405 kts 256°
2026-05-08 03:20 61.45890 109.36210 35678 ft 405 kts 255°
2026-05-08 03:21 61.44317 109.24914 35675 ft 405 kts 255°
2026-05-08 03:21 61.42733 109.13633 35674 ft 404 kts 255°
2026-05-08 03:22 61.41413 109.04271 35681 ft 404 kts 255°
2026-05-08 03:22 61.39819 108.93019 35678 ft 404 kts 255°
2026-05-08 03:23 61.38217 108.81774 35679 ft 404 kts 255°
2026-05-08 03:23 61.36611 108.70558 35683 ft 404 kts 255°
2026-05-08 03:24 61.34978 108.59281 35683 ft 403 kts 255°
2026-05-08 03:24 61.33347 108.48119 35686 ft 403 kts 255°
2026-05-08 03:25 61.31712 108.36953 35687 ft 403 kts 255°
2026-05-08 03:25 61.30074 108.25806 35689 ft 403 kts 254°
2026-05-08 03:26 61.28416 108.14667 35693 ft 403 kts 254°
2026-05-08 03:26 61.26746 108.03549 35691 ft 402 kts 254°
2026-05-08 03:27 61.25196 107.92396 35687 ft 402 kts 256°
2026-05-08 03:27 61.23759 107.81200 35694 ft 401 kts 256°
2026-05-08 03:28 61.22302 107.70016 35685 ft 401 kts 256°
2026-05-08 03:28 61.20804 107.58865 35684 ft 401 kts 255°
2026-05-08 03:29 61.19275 107.47757 35683 ft 401 kts 255°
2026-05-08 03:29 61.17755 107.36646 35681 ft 400 kts 255°
2026-05-08 03:30 61.15461 107.20003 35691 ft 400 kts 255°
2026-05-08 03:31 61.12355 106.97793 35689 ft 400 kts 255°
2026-05-08 03:32 61.10019 106.81232 35693 ft 400 kts 255°
2026-05-08 03:32 61.08440 106.70200 35697 ft 400 kts 255°
2026-05-08 03:33 61.06861 106.59192 35695 ft 400 kts 255°
2026-05-08 03:33 61.05278 106.48188 35700 ft 400 kts 255°
2026-05-08 03:34 61.03681 106.37207 35698 ft 400 kts 254°
2026-05-08 03:34 61.02072 106.26237 35698 ft 399 kts 254°
2026-05-08 03:35 61.00459 106.15276 35705 ft 399 kts 254°
2026-05-08 03:35 60.98841 106.04332 35703 ft 399 kts 254°
2026-05-08 03:36 60.97206 105.93395 35706 ft 399 kts 254°
2026-05-08 03:36 60.95560 105.82479 35707 ft 399 kts 254°
2026-05-08 03:37 60.93910 105.71574 35708 ft 399 kts 254°
2026-05-08 03:37 60.92241 105.60588 35713 ft 399 kts 253°
2026-05-08 03:38 60.90581 105.49702 35717 ft 399 kts 253°
2026-05-08 03:38 60.88905 105.38843 35716 ft 399 kts 253°
2026-05-08 03:39 60.87219 105.27997 35716 ft 399 kts 253°
2026-05-08 03:39 60.85528 105.17163 35719 ft 399 kts 253°
2026-05-08 03:40 60.83831 105.06339 35719 ft 398 kts 253°
2026-05-08 03:40 60.82123 104.95551 35718 ft 398 kts 253°
2026-05-08 03:41 60.80411 104.84771 35721 ft 398 kts 253°
2026-05-08 03:41 60.78694 104.74005 35721 ft 397 kts 253°
2026-05-08 03:42 60.76960 104.63271 35721 ft 397 kts 253°
2026-05-08 03:42 60.75227 104.52547 35720 ft 397 kts 253°
2026-05-08 03:43 60.73483 104.41852 35718 ft 397 kts 252°
2026-05-08 03:43 60.71731 104.31160 35715 ft 396 kts 252°
2026-05-08 03:44 60.69974 104.20497 35714 ft 396 kts 252°
2026-05-08 03:44 60.68199 104.09840 35711 ft 396 kts 252°
2026-05-08 03:45 60.66419 103.99204 35712 ft 396 kts 252°
2026-05-08 03:45 60.64624 103.88520 35711 ft 396 kts 252°
2026-05-08 03:46 60.62830 103.77923 35709 ft 395 kts 252°
2026-05-08 03:46 60.61029 103.67347 35709 ft 395 kts 252°
2026-05-08 03:47 60.59215 103.56785 35709 ft 395 kts 252°
2026-05-08 03:47 60.57392 103.46253 35712 ft 395 kts 252°
2026-05-08 03:48 60.55574 103.35713 35713 ft 395 kts 252°
2026-05-08 03:48 60.53751 103.25202 35715 ft 394 kts 251°
2026-05-08 03:49 60.51911 103.14714 35715 ft 394 kts 251°
2026-05-08 03:49 60.50057 103.04247 35718 ft 394 kts 251°
2026-05-08 03:50 60.48211 102.93792 35723 ft 394 kts 251°
2026-05-08 03:50 60.46360 102.83342 35720 ft 393 kts 251°
2026-05-08 03:51 60.44503 102.72926 35721 ft 393 kts 251°
2026-05-08 03:51 60.42638 102.62530 35727 ft 393 kts 251°
2026-05-08 03:52 60.40765 102.52136 35732 ft 393 kts 251°
2026-05-08 03:52 60.38880 102.41771 35722 ft 393 kts 251°
2026-05-08 03:53 60.36917 102.31471 35732 ft 393 kts 245°
2026-05-08 03:53 60.33868 102.22188 35731 ft 395 kts 236°
2026-05-08 03:54 60.31148 102.14776 35737 ft 395 kts 236°
2026-05-08 03:54 60.27883 102.05867 35727 ft 395 kts 236°
2026-05-08 03:55 60.24606 101.96978 35736 ft 395 kts 236°
2026-05-08 03:55 60.21318 101.88091 35730 ft 395 kts 236°
2026-05-08 03:56 60.18024 101.79251 35736 ft 396 kts 236°
2026-05-08 03:56 60.14724 101.70398 35740 ft 396 kts 236°
2026-05-08 03:57 60.11434 101.61562 35744 ft 395 kts 236°
2026-05-08 03:57 60.08136 101.52729 35744 ft 395 kts 236°
2026-05-08 03:58 60.04805 101.43869 35752 ft 396 kts 236°
2026-05-08 03:58 60.01516 101.35130 35748 ft 396 kts 236°
2026-05-08 03:59 59.98180 101.26307 35755 ft 396 kts 236°
2026-05-08 03:59 59.94857 101.17535 35754 ft 396 kts 236°
2026-05-08 04:00 59.91525 101.08781 35756 ft 396 kts 235°
2026-05-08 04:00 59.88185 101.00049 35757 ft 396 kts 235°
2026-05-08 04:01 59.84843 100.91342 35760 ft 396 kts 235°
2026-05-08 04:01 59.81493 100.82647 35762 ft 396 kts 235°
2026-05-08 04:02 59.78128 100.73961 35760 ft 397 kts 235°
2026-05-08 04:02 59.74769 100.65300 35764 ft 397 kts 235°
2026-05-08 04:03 59.71392 100.56633 35766 ft 397 kts 235°
2026-05-08 04:03 59.66328 100.43696 35766 ft 397 kts 235°
2026-05-08 04:04 59.62938 100.35068 35766 ft 397 kts 235°
2026-05-08 04:04 59.59543 100.26481 35765 ft 397 kts 235°
2026-05-08 04:05 59.56142 100.17898 35765 ft 397 kts 235°
2026-05-08 04:05 59.52739 100.09327 35765 ft 397 kts 235°
2026-05-08 04:06 59.49312 100.00731 35771 ft 397 kts 234°
2026-05-08 04:06 59.45893 99.92189 35770 ft 397 kts 234°
2026-05-08 04:07 59.42474 99.83677 35769 ft 397 kts 234°
2026-05-08 04:07 59.39037 99.75168 35769 ft 398 kts 234°
2026-05-08 04:08 59.35593 99.66679 35766 ft 398 kts 234°
2026-05-08 04:08 59.32143 99.58190 35778 ft 398 kts 234°
2026-05-08 04:09 59.28688 99.49724 35781 ft 398 kts 234°
2026-05-08 04:09 59.25223 99.41258 35779 ft 399 kts 234°
2026-05-08 04:10 59.21758 99.32817 35779 ft 399 kts 234°
2026-05-08 04:10 59.18286 99.24377 35783 ft 399 kts 234°
2026-05-08 04:11 59.14803 99.15954 35790 ft 399 kts 234°
2026-05-08 04:11 59.11300 99.07536 35787 ft 400 kts 234°
2026-05-08 04:12 59.07794 98.99159 35796 ft 400 kts 234°
2026-05-08 04:12 59.04291 98.90775 35797 ft 400 kts 234°
2026-05-08 04:13 59.00774 98.82379 35792 ft 400 kts 234°
2026-05-08 04:13 58.97245 98.74014 35797 ft 401 kts 234°
2026-05-08 04:14 58.93694 98.65612 35794 ft 401 kts 233°
2026-05-08 04:14 58.90181 98.57324 35793 ft 401 kts 233°
2026-05-08 04:15 58.86629 98.48992 35796 ft 401 kts 233°
2026-05-08 04:15 58.83058 98.40638 35796 ft 402 kts 233°
2026-05-08 04:16 58.79484 98.32306 35799 ft 402 kts 233°
2026-05-08 04:16 58.75937 98.24063 35806 ft 402 kts 233°
2026-05-08 04:17 58.72339 98.15720 35805 ft 403 kts 233°
2026-05-08 04:17 58.68753 98.07450 35807 ft 403 kts 233°
2026-05-08 04:18 58.65154 97.99179 35810 ft 403 kts 233°
2026-05-08 04:18 58.61561 97.90940 35812 ft 403 kts 233°
2026-05-08 04:19 58.57947 97.82700 35812 ft 403 kts 233°
2026-05-08 04:19 58.54336 97.74462 35817 ft 404 kts 233°
2026-05-08 04:20 58.50720 97.66246 35821 ft 404 kts 233°
2026-05-08 04:20 58.47071 97.57995 35823 ft 404 kts 233°
2026-05-08 04:21 58.43436 97.49794 35825 ft 404 kts 233°
2026-05-08 04:21 58.39789 97.41616 35827 ft 405 kts 233°
2026-05-08 04:22 58.36421 97.33095 35827 ft 401 kts 240°
2026-05-08 04:22 58.33428 97.24122 35824 ft 402 kts 240°
2026-05-08 04:23 58.30407 97.15168 35829 ft 402 kts 240°
2026-05-08 04:23 58.27373 97.06228 35829 ft 402 kts 240°
2026-05-08 04:24 58.24342 96.97292 35833 ft 403 kts 240°
2026-05-08 04:24 58.21319 96.88343 35832 ft 403 kts 240°
2026-05-08 04:25 58.18281 96.79428 35842 ft 403 kts 240°
2026-05-08 04:25 58.15228 96.70510 35840 ft 403 kts 240°
2026-05-08 04:26 58.12175 96.61606 35845 ft 403 kts 240°
2026-05-08 04:26 58.09120 96.52718 35840 ft 404 kts 240°
2026-05-08 04:27 58.06545 96.45278 35848 ft 404 kts 240°
2026-05-08 04:27 58.03462 96.36412 35849 ft 404 kts 239°
2026-05-08 04:28 58.00370 96.27560 35852 ft 404 kts 239°
2026-05-08 04:28 57.97334 96.18650 35855 ft 404 kts 241°
2026-05-08 04:29 57.94366 96.09672 35829 ft 404 kts 241°
2026-05-08 04:29 57.91391 96.00698 35844 ft 405 kts 241°
2026-05-08 04:30 57.88381 95.91753 35852 ft 405 kts 240°
2026-05-08 04:30 57.85362 95.82814 35861 ft 405 kts 240°
2026-05-08 04:31 57.82337 95.73879 35865 ft 406 kts 240°
2026-05-08 04:31 57.79290 95.64964 35870 ft 406 kts 240°
2026-05-08 04:32 57.76245 95.56060 35875 ft 406 kts 240°
2026-05-08 04:32 57.73176 95.47107 35879 ft 406 kts 240°
2026-05-08 04:33 57.70120 95.38227 35877 ft 406 kts 240°
2026-05-08 04:33 57.67062 95.29365 35887 ft 406 kts 240°
2026-05-08 04:34 57.63993 95.20509 35890 ft 406 kts 240°
2026-05-08 04:34 57.60918 95.11684 35875 ft 406 kts 240°
2026-05-08 04:35 57.57834 95.02877 35877 ft 406 kts 240°
2026-05-08 04:35 57.54752 94.94067 35886 ft 406 kts 240°
2026-05-08 04:36 57.51661 94.85273 35877 ft 406 kts 240°
2026-05-08 04:36 57.48561 94.76500 35889 ft 406 kts 239°
2026-05-08 04:37 57.45457 94.67749 35887 ft 406 kts 239°
2026-05-08 04:37 57.42340 94.58999 35884 ft 406 kts 239°
2026-05-08 04:38 57.39225 94.50273 35897 ft 406 kts 239°
2026-05-08 04:38 57.36104 94.41560 35891 ft 406 kts 239°
2026-05-08 04:39 57.32979 94.32855 35891 ft 406 kts 239°
2026-05-08 04:39 57.29821 94.24114 35892 ft 406 kts 239°
2026-05-08 04:40 57.26696 94.15504 35893 ft 406 kts 239°
2026-05-08 04:40 57.23523 94.06803 35896 ft 406 kts 239°
2026-05-08 04:41 57.20353 93.98109 35913 ft 416 kts 239°
2026-05-08 04:41 57.17092 93.89180 35915 ft 422 kts 239°
2026-05-08 04:42 57.13800 93.80223 35914 ft 423 kts 239°
2026-05-08 04:42 57.10490 93.71271 35917 ft 423 kts 239°
2026-05-08 04:43 57.07188 93.62333 35916 ft 423 kts 239°
2026-05-08 04:43 57.03879 93.53414 35916 ft 423 kts 239°
2026-05-08 04:44 57.00549 93.44516 35917 ft 423 kts 239°
2026-05-08 04:44 56.97216 93.35633 35914 ft 423 kts 239°
2026-05-08 04:45 56.93882 93.26759 35912 ft 423 kts 239°
2026-05-08 04:45 56.90539 93.17909 35916 ft 423 kts 238°
2026-05-08 04:46 56.86632 93.09792 35912 ft 426 kts 231°
2026-05-08 04:46 56.82619 93.01819 35916 ft 426 kts 231°
2026-05-08 04:47 56.78626 92.93911 35435 ft 417 kts 231°
2026-05-08 04:47 56.76665 92.90026 34466 ft 425 kts 231°
2026-05-08 04:47 56.74617 92.85969 33427 ft 433 kts 231°
2026-05-08 04:48 56.72566 92.81911 32341 ft 439 kts 230°
2026-05-08 04:48 56.70487 92.77810 31301 ft 443 kts 230°
2026-05-08 04:48 56.68388 92.73685 30279 ft 443 kts 230°
2026-05-08 04:48 56.66305 92.69610 29071 ft 437 kts 230°
2026-05-08 04:49 56.64245 92.65591 27822 ft 431 kts 230°
2026-05-08 04:49 56.62518 92.61253 26634 ft 420 kts 245°
2026-05-08 04:49 56.61536 92.56338 25498 ft 411 kts 260°
2026-05-08 04:49 56.61324 92.51216 24404 ft 405 kts 274°
2026-05-08 04:50 56.61836 92.46239 23317 ft 400 kts 288°
2026-05-08 04:50 56.63017 92.41698 22091 ft 398 kts 302°
2026-05-08 04:50 56.64788 92.37853 20906 ft 398 kts 315°
2026-05-08 04:50 56.67039 92.34944 19770 ft 399 kts 329°
2026-05-08 04:51 56.69634 92.33169 18672 ft 401 kts 344°
2026-05-08 04:51 56.72419 92.32669 17516 ft 405 kts 359°
2026-05-08 04:51 56.75200 92.33562 16326 ft 409 kts 16°
2026-05-08 04:51 56.77704 92.35949 15665 ft 402 kts 34°
2026-05-08 04:52 56.79703 92.39461 15289 ft 398 kts 50°
2026-05-08 04:52 56.81049 92.43817 14938 ft 393 kts 68°
2026-05-08 04:52 56.81618 92.48613 14701 ft 383 kts 86°
2026-05-08 04:52 56.81426 92.53388 14464 ft 374 kts 103°
2026-05-08 04:53 56.80559 92.57771 14218 ft 363 kts 119°
2026-05-08 04:53 56.79134 92.61470 13977 ft 352 kts 135°
2026-05-08 04:53 56.77287 92.64282 13742 ft 341 kts 151°
2026-05-08 04:53 56.75189 92.66096 13478 ft 329 kts 166°
2026-05-08 04:54 56.72993 92.66902 13214 ft 318 kts 180°
2026-05-08 04:54 56.70824 92.66772 12948 ft 308 kts 191°
2026-05-08 04:54 56.68710 92.66322 12686 ft 304 kts 191°
2026-05-08 04:54 56.66619 92.65883 12429 ft 301 kts 190°
2026-05-08 04:55 56.65219 92.65590 12253 ft 300 kts 190°
2026-05-08 04:55 56.62428 92.65438 11913 ft 300 kts 181°
2026-05-08 04:55 56.60344 92.65559 11658 ft 299 kts 181°
2026-05-08 04:55 56.58275 92.65679 11398 ft 297 kts 181°
2026-05-08 04:56 56.56212 92.65797 11157 ft 296 kts 181°
2026-05-08 04:56 56.54161 92.65912 10971 ft 294 kts 181°
2026-05-08 04:56 56.52120 92.66030 10936 ft 293 kts 181°
2026-05-08 04:56 56.51461 92.66068 10940 ft 293 kts 181°
2026-05-08 04:57 56.49351 92.66192 10945 ft 293 kts 181°
2026-05-08 04:57 56.47307 92.66308 10946 ft 294 kts 181°
2026-05-08 04:57 56.45267 92.66420 10951 ft 294 kts 181°
2026-05-08 04:58 56.43221 92.66528 10953 ft 294 kts 181°
2026-05-08 04:58 56.41182 92.66636 10954 ft 294 kts 181°
2026-05-08 04:58 56.39140 92.66745 10958 ft 294 kts 181°
2026-05-08 04:58 56.37096 92.66860 10959 ft 294 kts 181°
2026-05-08 04:59 56.35054 92.66973 10959 ft 294 kts 181°
2026-05-08 04:59 56.33013 92.67087 10965 ft 294 kts 181°
2026-05-08 04:59 56.30968 92.67204 10969 ft 294 kts 181°
2026-05-08 04:59 56.28941 92.67684 10966 ft 298 kts 166°
2026-05-08 05:00 56.27061 92.69281 10973 ft 302 kts 147°
2026-05-08 05:00 56.25539 92.71917 10971 ft 306 kts 128°
2026-05-08 05:00 56.24527 92.75291 10973 ft 309 kts 114°
2026-05-08 05:00 56.23955 92.77686 10968 ft 309 kts 114°
2026-05-08 05:01 56.23106 92.81223 10744 ft 307 kts 114°
2026-05-08 05:01 56.22261 92.84729 10380 ft 305 kts 115°
2026-05-08 05:01 56.21420 92.88206 10018 ft 303 kts 115°
2026-05-08 05:01 56.20576 92.91685 9526 ft 305 kts 115°
2026-05-08 05:02 56.19724 92.95189 9029 ft 306 kts 115°
2026-05-08 05:02 56.18806 92.98633 8526 ft 305 kts 125°
2026-05-08 05:02 56.17284 93.01151 8040 ft 297 kts 155°
2026-05-08 05:02 56.15334 93.02024 7631 ft 286 kts 184°
2026-05-08 05:03 56.13450 93.01251 7267 ft 275 kts 206°
2026-05-08 05:03 56.11737 92.99929 7179 ft 261 kts 206°
2026-05-08 05:03 56.10103 92.98667 6954 ft 253 kts 206°
2026-05-08 05:03 56.08548 92.97256 6583 ft 248 kts 220°
2026-05-08 05:04 56.07510 92.94895 6219 ft 242 kts 248°
2026-05-08 05:04 56.07242 92.91965 5828 ft 240 kts 275°
2026-05-08 05:04 56.07727 92.89128 5438 ft 240 kts 292°
2026-05-08 05:04 56.08387 92.86393 5062 ft 240 kts 291°
2026-05-08 05:05 56.09041 92.83658 4711 ft 237 kts 292°
2026-05-08 05:05 56.09688 92.80978 4380 ft 232 kts 291°
2026-05-08 05:05 56.10321 92.78361 4071 ft 225 kts 291°
2026-05-08 05:05 56.10926 92.75859 3795 ft 213 kts 290°
2026-05-08 05:06 56.11498 92.73488 3516 ft 203 kts 290°
2026-05-08 05:06 56.12047 92.71213 3246 ft 195 kts 290°
2026-05-08 05:06 56.12573 92.69031 3033 ft 183 kts 289°
2026-05-08 05:06 56.13057 92.67022 2779 ft 168 kts 288°
2026-05-08 05:07 56.13502 92.65173 2552 ft 154 kts 290°
2026-05-08 05:07 56.13898 92.63522 2360 ft 135 kts 290°
2026-05-08 05:07 56.14256 92.62030 2185 ft 127 kts 287°
2026-05-08 05:07 56.14602 92.60583 2017 ft 125 kts 290°
2026-05-08 05:08 56.14896 92.59363 1878 ft 123 kts 287°
2026-05-08 05:08 56.15235 92.57941 1702 ft 123 kts 288°
2026-05-08 05:08 56.15574 92.56523 1524 ft 125 kts 289°
2026-05-08 05:08 56.15912 92.55109 1366 ft 123 kts 288°
2026-05-08 05:09 56.16261 92.53698 1139 ft 126 kts 290°
2026-05-08 05:09 56.16595 92.52262 1001 ft 125 kts 290°
2026-05-08 05:09 56.16923 92.50885 954 ft 107 kts 291°
2026-05-08 05:09 56.17149 92.49913 950 ft 65 kts 292°
2026-05-08 05:10 56.17304 92.49268 950 ft 48 kts 294°
2026-05-08 05:10 56.17572 92.48607 951 ft 28 kts 325°
2026-05-08 05:10 56.17708 92.48421 950 ft 22 kts 323°
2026-05-08 05:11 56.17826 92.48449 951 ft 17 kts 21°
2026-05-08 05:11 56.17927 92.48522 951 ft 0 kts 24°
2026-05-08 05:11 56.17931 92.48525 951 ft 2 kts 24°
2026-05-08 05:11 56.17945 92.48535 951 ft 0 kts 20°